Regional Weather Roundup
Issued by NWS

Home | Current Version | Previous Version | Graphics & Text | Print | Product List | Glossary On
Versions: 1 2 3 4 5 6 7 8 9 10 11 12 13 14 15 16 17 18 19 20 21 22 23 24 25 26 27
000
ASUS45 KBOI 242010
RWRID

IDAHO REGIONAL WEATHER ROUNDUP
NATIONAL WEATHER SERVICE BOISE ID
200 PM MDT WED MAY 24 2017

NOTE: "FAIR" INDICATES FEW OR NO CLOUDS BELOW 12000 FEET
WITH NO SIGNIFICANT WEATHER AND/OR OBSTRUCTIONS TO VISIBILITY

IDZ012-014-242100-
SOUTHWEST IDAHO


CITY           SKY/WX    TMP DP  RH WIND       PRES   REMARKS
BOISE          SUNNY     71  17  12 NW20G25   29.73F
CALDWELL       SUNNY     71  30  21 NW15      29.74F
MOUNTAIN HOME  SUNNY     74  28  18 NW23G35   29.70F
$$

IDZ016-017-242100-
SOUTHCENTRAL IDAHO


CITY           SKY/WX    TMP DP  RH WIND       PRES   REMARKS
BURLEY         SUNNY     72  41  32 W16G28    29.69F
JEROME         SUNNY     72  33  24 W28G36    29.72F
TWIN FALLS     SUNNY     72  40  31 W23       29.72F
$$

IDZ019>023-242100-
SOUTHEAST IDAHO


CITY           SKY/WX    TMP DP  RH WIND       PRES   REMARKS
IDAHO FALLS    MOSUNNY   74  30  19 SW43G55   29.60F
POCATELLO      SUNNY     74  41  30 W30G44    29.70F
REXBURG        MOSUNNY   73  32  22 SW35G54   29.55F
$$

IDZ006-010-011-018-031-032-242100-
CENTRAL IDAHO MOUNTAINS


CITY           SKY/WX    TMP DP  RH WIND       PRES   REMARKS
MCCALL         SUNNY     59  18  20 W8G26     29.74F
HAILEY         SUNNY     66  28  24 S14G21    29.69F
STANLEY          N/A     62  16  16 NW13G20   29.72F
SALMON         SUNNY     68  19  15 NW22G32   29.53F
CHALLIS        SUNNY     69   7   9 W22G36    29.61S
$$

IDZ002-004-006-007-026-242100-
NORTHERN IDAHO


CITY           SKY/WX    TMP DP  RH WIND       PRES   REMARKS
LEWISTON       MOSUNNY   62  33  33 W16G23    29.80F
LOWELL           N/A     63  32  31 S5        29.77S
COEUR D`ALENE  MOSUNNY   60  26  27 SW12G21   29.73F
MULLAN PASS    PTSUNNY   41  22  46 VRB7      29.71F
$$




USA.gov is the U.S. government's official web portal to all federal, state and local government web resources and services.